Location: Audignicourt
(49.4788°N, 3.1340°E)
Time: 07:26:19
(UTC+00:00)

Aureole 1 Rocket - Pass Details

Date: 15 May 2026
Orbit: 372 x 1149 km, 73.9° (Epoch: 6 June)

Event Time Altitude Azimuth Distance (km) Brightness Sun altitude
Rises 22:14:11 0° 335° (NNW) 3,307 8.5 -18.6°
Reaches altitude 10° 22:16:24 10° 334° (NNW) 2,482 7.4 -18.8°
Maximum altitude 22:22:13 81° 249° (WSW) 993 4.0 -19.1°
Enters shadow 22:25:36 32° 166° (SSE) 1,698 4.7 -19.3°
